Flag for U.S.A. Weather past 2 weeks in Salem, Oregon, U.S.A.

Now
65 °F

Overcast.


Feels Like: 65 °F
Forecast: 65 / 74 °F
Wind: 23 mph from South

Location: McNary Field

Current Time: Aug 29, 2015 at 8:44:07 AM

Latest Report: Aug 29, 2015 at 7:56 AM


Visibility: 10 mi

Pressure: 29.70 "Hg

Humidity: 68%

Dew point: 54 °F

Location of SalemLocation

Historic Weather in Salem — Graph

°F

Salem temperature yesterday

Maximum temperature yesterday: 81 °F (at 2:56 PM)
Minimum temperature yesterday: 65 °F (at 6:56 AM)
Average temperature yesterday: 72 °F

Past Weeks' High & Low Weather Summary

 TemperatureHumidityPressure
High97 °F (Aug 19, 3:56 PM)91% (Aug 29, 4:56 AM)30.25 "Hg (Aug 29, 4:56 AM)
Low52 °F (Aug 25, 5:56 AM)13% (Aug 25, 5:56 PM)29.56 "Hg (Aug 29, 1:56 AM)
Average70 °F52%29.98 "Hg
* Reported Aug 14 6:56 AM — Aug 29 6:56 AM, Salem, Weather by CustomWeather, © 2015

Note: Actual official high and low records may vary slightly from our data, if they occured in-between our weather recording intervals... More about our weather records

Advertising

Salem weather history for previous 24 hours

 ConditionsComfort  
Time TempWeatherWind HumidityBarometerVisibility
6:56 AM
Sat, Aug 29
65 °FPassing clouds.16 mph85%29.67 "Hg10 mi
5:56 AM66 °FOvercast.13 mph87%29.63 "Hg10 mi
4:56 AM65 °FLight rain. Overcast.13 mph91%29.62 "Hg10 mi
3:56 AM65 °FRain. Fog.10 mph87%29.63 "Hg5 mi
2:56 AM69 °FThundershowers. Passing clouds.3 mph70%29.57 "Hg10 mi
1:56 AM69 °FPassing clouds.5 mph76%29.56 "Hg10 mi
12:56 AM71 °FPartly cloudy.No wind66%29.59 "Hg10 mi
11:56 PM
Fri, Aug 28
72 °FPassing clouds.5 mph64%29.61 "Hg10 mi
10:56 PM72 °FClear.5 mph64%29.65 "Hg10 mi
9:56 PM74 °FPassing clouds.7 mph60%29.67 "Hg10 mi
8:56 PM74 °FLight rain. Partly cloudy.8 mph62%29.71 "Hg10 mi
7:56 PM76 °FPassing clouds.7 mph58%29.70 "Hg10 mi
6:56 PM77 °FSunny.9 mph54%29.73 "Hg10 mi
5:56 PM78 °FSunny.8 mph52%29.77 "Hg10 mi
4:56 PM80 °FSunny.10 mph47%29.78 "Hg10 mi
3:56 PM80 °FSunny.9 mph47%29.81 "Hg10 mi
2:56 PM81 °FPartly sunny.3 mph44%29.83 "Hg10 mi
1:56 PM79 °FPassing clouds.5 mph47%29.87 "Hg10 mi
12:56 PM77 °FSunny.5 mph50%29.89 "Hg10 mi
11:56 AM76 °FSunny.3 mph52%29.93 "Hg10 mi
10:56 AM73 °FSunny.No wind55%29.93 "Hg10 mi
9:56 AM70 °FOvercast.3 mph55%29.95 "Hg10 mi
8:56 AM67 °FOvercast.6 mph63%29.96 "Hg10 mi
Weather by CustomWeather, © 2015

See weather overviewHow to use our weather pages